Regional Weather Roundup
Issued by NWS

Home | Current Version | Previous Version | Graphics & Text | Print | Product List | Glossary Off
Versions: 1 2 3 4 5 6 7 8 9 10 11 12 13 14 15 16 17 18 19 20 21 22 23 24 25 26 27 28 29 30 31 32 33 34 35 36 37 38 39 40 41 42 43 44 45 46 47 48 49 50

000
ASUS43 KDTX 260310
RWRMI
MICHIGAN HOURLY REGIONAL WEATHER ROUNDUP
NATIONAL WEATHER SERVICE DETROIT/PONTIAC MI
ISSUED BY NATIONAL WEATHER SERVICE GRAND RAPIDS MI
1000 PM EST SAT FEB 25 2017

NOTE: "FAIR" INDICATES FEW OR NO CLOUDS BELOW 12,000 FEET WITH NO
SIGNIFICANT WEATHER AND/OR OBSTRUCTION TO VISIBILITY.

MIZ047>049-052>055-059>063-066>070-074>076-081>083-260400-
SOUTHEAST LOWER MICHIGAN

CITY           SKY/WX    TMP DP  RH WIND       PRES   REMARKS
ADRIAN         CLOUDY    24  15  68 NW12G18   29.97R WCI  13
ALMA           FLURRIES  24  19  78 W9G18     29.92R WCI  15
ANN ARBOR      CLOUDY    24  12  60 W14       29.94R WCI  12
BAD AXE        LGT SNOW  25  20  79 W17G25    29.85R WCI  12
DETROIT CITY   CLOUDY    25  12  58 W13G20    29.94R WCI  14
DETROIT        CLOUDY    25  12  58 W15       29.96R WCI  13
FLINT          CLOUDY    24  17  74 W16G24    29.91R WCI  11
GROSSE ILE     CLOUDY    26  15  63 NW14G21   29.95R WCI  14
HILLSDALE      FLURRIES  21  18  86 W13       29.94R WCI   9
HOWELL         FLURRIES  24  16  71 W15G22    29.92R WCI  11

CITY           SKY/WX    TMP DP  RH WIND       PRES   REMARKS
JACKSON        CLOUDY    22  14  71 W12G18    29.94R WCI  10
LANSING        LGT SNOW  23  16  74 W13       29.94R WCI  11
MASON          FLURRIES  23  18  80 W9        29.94R WCI  13
MONROE         CLOUDY    26  15  64 W21       29.96R WCI  12
MT. CLEMENS    CLOUDY    26  12  56 W10G24    29.90R WCI  16
PONTIAC        FLURRIES  23  14  68 W12G24    29.89R WCI  12
PORT HOPE        N/A     28  13  53 W15G22    29.81R WCI  16
PORT HURON     CLOUDY    25  16  68 W7        29.90R WCI  17
TRI CITIES     CLOUDY    25  18  74 W17       29.89R WCI  12
YPSILANTI      CLOUDY    26  12  55 W15       29.95R WCI  14
$$
MIZ043>046-050>051-056>058-064>065-071>073-077>080-260400-
SOUTHWEST LOWER MICHIGAN

CITY           SKY/WX    TMP DP  RH WIND       PRES   REMARKS
BATTLE CREEK   FLURRIES  22  17  81 W9        29.96R WCI  12
BENTON HARBOR  CLOUDY    27  14  58 NW12      29.99R WCI  17
BIG RAPIDS     FLURRIES  22  17  79 W9        29.88R WCI  12
COLDWATER      LGT SNOW  23  20  87 W7        29.97R WCI  15
HOLLAND        CLOUDY    26  16  65 W13G20    29.97R WCI  15
GRAND RAPIDS   FLURRIES  23  17  78 W10       29.94R WCI  12
KALAMAZOO      LGT SNOW  23  15  71 W6        29.97R WCI  16
MARSHALL       FLURRIES  22  17  79 W12       29.95R WCI  11
MOUNT PLEASANT FLURRIES  24  17  73 W12G17    29.89R WCI  13
MUSKEGON       CLOUDY    26  15  63 NW13      29.96R WCI  15
STURGIS        FLURRIES  24  19  84 W5        29.97R WCI  18
$$
MIZ016>042-260400-
NORTHERN LOWER MICHIGAN

CITY           SKY/WX    TMP DP  RH WIND       PRES   REMARKS
ALPENA         MOCLDY    21  14  74 W5        29.81R WCI  15
BEAVER ISLAND  CLOUDY    23  14  68 W10G22    29.82R WCI  12
BELLAIRE       FLURRIES  26  15  64 W8        29.84S WCI  17
CADILLAC       FLURRIES  22  16  79 W9G18     29.83R WCI  12
CHARLEVOIX     FLURRIES  25  17  71 W23G30    29.85R WCI  10
GAYLORD        LGT SNOW  22  15  75 W8        29.77R WCI  12
HOUGHTON LAKE  FLURRIES  23  18  81 W13       29.82R WCI  11
MANISTEE       MOCLDY    25  15  66 W14       29.90R WCI  13
OSCODA         CLOUDY    26  19  74 W8        29.82R WCI  18
PELLSTON       CLOUDY    23  12  62 W12       29.80R WCI  12
TRAVERSE CITY  CLOUDY    26  16  65 W16       29.85R WCI  14
LUDINGTON      MOCLDY    24  15  66 NW9G17    29.91R WCI  15
$$
MIZ007>008-015-260400-
EASTERN UPPER MICHIGAN

CITY           SKY/WX    TMP DP  RH WIND       PRES   REMARKS
KINROSS        FLURRIES  19  16  88 W16       29.74R WCI   4
MACKINAC ISLAN CLOUDY    23  15  69 W24G31    29.77R WCI   7
NEWBERRY       LGT SNOW  19  17  90 W12       29.75R WCI   7
S. S. MARIE    LGT SNOW  22  18  85 W10G18    29.71R FOG     WCI  11
$$
MIZ004>006-011>014-085-260400-
CENTRAL UPPER MICHIGAN

CITY           SKY/WX    TMP DP  RH WIND       PRES   REMARKS
MANISTIQUE     CLOUDY    20  13  75 W5        29.81R WCI  13
ESCANABA       CLEAR     11   8  88 SW5       29.85R WCI   3
MENOMINEE      CLEAR     15   9  76 W7        29.89R WCI   5
SAWYER-GWINN   CLEAR     14   9  79 W7        29.78R WCI   4
$$
MIZ001>003-009>011-084-260400-
WESTERN UPPER MICHIGAN

CITY           SKY/WX    TMP DP  RH WIND       PRES   REMARKS
IRON MOUNTAIN  MOCLDY     7   2  80 CALM      29.80R
HOUGHTON       CLOUDY    25  13  60 W17G25    29.72R WCI  12
COPPER HARBOR    N/A     27  10  49 N17G25    29.72R WCI  14
IRONWOOD       PTCLDY    20  12  71 SW8       29.77S WCI  10
$$

ABBREVIATIONS USED IN REMARKS
   TC - TEMPERATURE IN CELSIUS
  WCI - WIND CHILL INDEX
   HX - HEAT INDEX
  VSB - VISIBILITY




USA.gov is the U.S. government's official web portal to all federal, state and local government web resources and services.